COSMOS 252 DEB, 3843

Orbit data source: Space-Track

COSMOS 252 DEB, 3843 is space debris in LEO originally from a launch on Fri, 01 Nov 1968 UTC launched from the Tyuratam Missile And Space Complex (TTMTR). Debris objects in space refer to the collection of defunct objects orbiting the Earth. Examples of debris include non-operational satellites, rocket bodies, and fragments generated from explosions, collisions, or faulty payload assembly.

Loading next visibility...
Identifier
3843, 1968-097BG
Orbit
LEO
Country
Flag of CISCIS
Related business
Manufacturer
Unknown
Mission
Spacecraft
Bus & Motor
Unknown
Mass
Unknown
Launch date (UTC)
1968-11-01 (57 years ago)
Launch vehicle
Unknown
Launch site
Tyuratam Missile And Space Complex (TTMTR)
Object type
Payload
Rocket body
Debris
Shape & HBR
Unknown shape, 0.1 m
Radar Cross Section
Small (<0.1 m²)

Expand to show TLE details & history
Last TLE update: 19 hours ago

TLE from 19 hours ago
0 COSMOS 252 DEB
1 03843U 68097BG  25343.07052164  .00003191  00000-0  31942-2 0  9995
2 03843  62.2622 214.7314 0696504  68.8275 298.5675 13.03647662642527
Epoch: 2025-12-09T01:41Z
TLE epoch observation values (Epoch: 2025-12-09T01:41:33.069Z)
Latitude
-0.00003°
Longitude
111.28312°
Altitude
1,025.398 km
Speed
7.447 km/s
True Right ascension
14h 18m 55s
True Declination
0° 00' 00"
Sunlit
Object was in daylight at epoch
Visualization orbit readout
Latitude
Unknown
Longitude
Unknown
Altitude
Unknown
Speed
Unknown
Apparent Right ascension
Unknown
Apparent Declination
Unknown
Sunlit
N/A
Visualization observer readout
Local Sidereal Time
19:09:09
Azimuth
Unknown
Elevation
Unknown
Doppler factor
Unknown
Orbital elements
Apogee altitude
1,777.899 km
Perigee altitude
715.737 km
Semi-major axis
7,624.955 km
Eccentricity
0.06965
Inclination
62.2622°
RAAN
214.7314°
Arg. of periapsis
68.8275°
True anomaly
291.27374°
Mean anomaly
298.5675°
Eccentric anomaly
294.94923°
Mean motion
3.25977 °/min
Orbital period
110.44 mins
BSTAR
0.0031942
Loading maneuver chart data...
Computing Atmospheric mass density...

Documentation

Showing up to 5 results
|